Погода в Пироговском

Россия / Московская область     55°58′48″N   37°44′39″E
темп.,
°C
ветер,
м/с
пор.,
м/с
влажн.,
%
обл.,
%
осадки,
мм/ч
давл.,
гПа
погр.,
м
17 сентября, пт
пт1700:00+6с2477100 0.0 1020259
03:00+5с2478100 0.1 1020270
06:00+5с2575100 0.0 1020258
09:00+7ссв2465100 0.1 1020584
12:00+9св3451100 0.1 10201525
15:00+9св3448100 0.1 10201520
18:00+9св244999 0.0 1020259
21:00+4всв25725 0.0 102289
18 сентября, сб
сб1800:00+3всв23765 0.0 102362
03:00+2всв23805 0.0 102349
06:00+1всв2585100 0.0 1024108
09:00+6в3763100 0.0 1024407
12:00+10в4649100 0.0 10241266
15:00+12в4545100 0.0 10231513
18:00+8всв5859100 0.0 1023631
21:00+6в51166100 0.0 1024547
19 сентября, вс
вс1900:00+5в41168100 0.0 1024490
03:00+5в41271100 0.0 1023476
06:00+4в51273100 0.0 1023488
09:00+6в61263100 0.0 1023670
12:00+9в7950100 0.0 10221035
15:00+10в5950100 0.0 10211254
18:00+8в61055100 0.0 10211168
21:00+7в61156100 0.0 1020965
20 сентября, пн
пн2000:00+6всв61259100 0.0 1020904
03:00+6всв61368100 0.2 1019937
06:00+4всв71480100 0.9 10191003
09:00+4всв81692100 1.4 1019856
12:00+4всв71491100 0.4 10181014
15:00+5всв71585100 1.3 10181073
18:00+5всв81581100 0.3 10171077
21:00+5всв71589100 1.9 1016937
21 сентября, вт
вт2100:00+4всв71492100 3.6 1015857
03:00+5всв61394100 9.6 1014819
06:00+5всв51294100 0.5 1013744
09:00+5всв51195100 1.0 1013711
12:00+5всв51194100 1.4 1012618
15:00+5всв51195100 4.4 1012607
18:00+5всв51096100 0.7 1011553
21:00+5всв4996100 2.3 1011496